Lexington Weather

Lexington, Massachusetts, USA

34°F
4/16/2021 9:26am 
  • Lexington Conditions: Snow, Mist, Overcast
  • Temperature: 34.2°F / 1.2°CColder 3.7°F than last hour.
  • Dew Point: 32.9°FDecreased 3.8°Fsince last hour.
  • Relative Humidity: 95
  • Wind: Calm, 10-min avg: Calm, gust: 2 mph
  • Barometer: 29.48 inFalling 0.03  inHg/hr Falling Slowly
  • Visibility: ½ mile
  • Snow Today: 0.3 in
  •   

Regional Weather Roundup
for Boston / Norton, MA

        
000
ASUS41 KBOX 151504
RWRBOX

REGIONAL WEATHER ROUNDUP
NATIONAL WEATHER SERVICE BOSTON/NORTON MA
1100 AM EDT THU APR 15 2021

NOTE:  "FAIR" INDICATES FEW OR NO CLOUDS BELOW 12,000 FEET WITH NO 
SIGNIFICANT WEATHER AND/OR OBSTRUCTIONS TO VISIBILITY.

MAZALL-151600-
EASTERN MASSACHUSETTS
  
CITY           SKY/WX    TMP DP  RH WIND       PRES   REMARKS
BOSTON         CLOUDY    50  38  63 E17       29.87F                  
BEVERLY        NOT AVBL                                               
LAWRENCE       CLOUDY    51  28  41 SE9G17    29.87F                  
BEDFORD        CLOUDY    52  34  50 E10       29.84F                  
BLUE HILL        N/A     50  30  46 SE8       29.83F                  
NORWOOD        CLOUDY    55  30  38 E7        29.84F                  
MARSHFIELD     CLOUDY    50  37  62 SE8G16    29.87F                  
PLYMOUTH       CLOUDY    52  25  35 SE12      29.85F                  
TAUNTON          N/A    N/A N/A N/A MISG      29.85F                  
NEW BEDFORD    CLOUDY    50  31  48 SE12      29.85F                  
$$

MAZALL-151600-
CAPE COD AND THE ISLANDS
  
CITY           SKY/WX    TMP DP  RH WIND       PRES   REMARKS
FALMOUTH       PTSUNNY   48  32  53 SE12G21   29.86F                  
HYANNIS        CLOUDY    49  35  58 E10G18    29.84F                  
CHATHAM        CLOUDY    47  37  68 SE12      29.90F                  
PROVINCETOWN     N/A     50  34  54 SE12      29.89                   
NANTUCKET      CLOUDY    47  34  60 E16       29.87F                  
MARTHAS VNYRD  PTSUNNY   50  33  52 SE15      29.86F                  
$$
 
MAZALL-151600-
CENTRAL AND WESTERN MASSACHUSETTS
  
CITY           SKY/WX    TMP DP  RH WIND       PRES   REMARKS
WORCESTER      LGT RAIN  46  41  82 SE10      29.81F                  
FITCHBURG      CLOUDY    50  39  66 S10       29.84F                  
ORANGE         LGT RAIN  50  43  77 SE9       29.80F                  
SPRINGFIELD    LGT RAIN  49  46  92 S9        29.78F FOG              
WESTFIELD      LGT RAIN  47  46  97 CALM      29.79S FOG              
NORTH ADAMS    RAIN      47  45  93 E8        29.76F FOG              
PITTSFIELD     LGT RAIN  45  43  93 E6        29.74F FOG              
$$
 
RIZALL-151600-
RHODE ISLAND
  
CITY           SKY/WX    TMP DP  RH WIND       PRES   REMARKS
PROVIDENCE     LGT RAIN  50  37  61 SE9       29.85S                  
NEWPORT        CLOUDY    47  36  65 SE9       29.86R                  
BLOCK ISLAND   CLOUDY    46  40  79 SE14      29.84S                  
SMITHFIELD     LGT RAIN  49  39  68 SE12      29.84F                  
WESTERLY       LGT RAIN  45  42  89 E9        29.83F                  
$$
 
CTZALL-151600-
CONNECTICUT
  
CITY           SKY/WX    TMP DP  RH WIND       PRES   REMARKS
BRADLEY INTL   DRIZZLE   48  45  89 SE6       29.79F FOG              
HARTFORD       LGT RAIN  49  45  86 SE6       29.79F FOG              
BRIDGEPORT     CLOUDY    50  48  93 E5        29.77F                  
DANBURY        CLOUDY    52  47  83 SE5       29.77F                  
GROTON         LGT RAIN  47  44  90 E10       29.82S FOG              
NEW HAVEN      CLOUDY    50  49  96 E8        29.78F FOG              
CHESTER        LGT RAIN  48  48 100 SE9       29.79S                  
MERIDEN        LGT RAIN  50  47  89 SE6       29.78F FOG              
WILLIMANTIC    CLOUDY    47  45  93 VRB3      29.81F FOG              
OXFORD         LGT RAIN  48  48 100 SE10      29.77F FOG              
$$

MEZ002-015-021-024-NHZ003-005-008-011-012-014-VTZ005-008-151600-
NORTHERN NEW ENGLAND
  
CITY           SKY/WX    TMP DP  RH WIND       PRES   REMARKS
PORTLAND ME    PTSUNNY   51  34  52 S9        29.90F                  
BANGOR ME      MOSUNNY   54  36  50 E5        29.90F                  
CONCORD NH     CLOUDY    49  35  58 E9        29.85F                  
MANCHESTER NH  CLOUDY    52  28  39 SE14G20   29.83F                  
NASHUA NH      CLOUDY    52  30  43 SE8G17    29.85F                  
PORTSMOUTH NH  PTSUNNY   51  26  38 SE17      29.90S                  
JAFFREY NH     CLOUDY    47  41  80 S8        29.81F                  
KEENE NH       CLOUDY    50  43  77 SE12G22   29.80F                  
BURLINGTON VT  HVY RAIN  49  45  86 E12G18    29.73F FOG              
MT. WASHINGTON FOG       32  32 100 SE36        N/A  VSB 1/8 WCI  16  
$$

NYZ052-076-151600-
EASTERN NEW YORK
  
CITY           SKY/WX    TMP DP  RH WIND       PRES   REMARKS
ALBANY         CLOUDY    49  45  86 SE13      29.71F                  
NEW YORK CITY  LGT RAIN  51  48  89 VRB3      29.75F FOG              
$$
 
ANZALL-151600-
MARINE OBSERVATIONS
  
STATION/POSITION TIME  TEMP    WIND        PRES    VSBY  WAVE
                       AIR SEA DIR/SP/G                  HT/PER
                 (UTC) (F)     (DEG/KT/KT) (MB)    (MI)  (FT/S)
BOSTON BUOY      1440   45 45  110/ 12/ 14 1012.4F
BUZZARDS BAY     1400          120/ 16/ 17 1011.9F
NANTUCKET SOUND  1440      47                N/A
MASS BAY-STELLWA 1404   45     130/ 10/ 12 1011.5R  1 7/8  5/11
ISLE OF SHOALS   1400   44     100/ 12/ 13 1011.8F
S OF BLOCK IS    1426      44                N/A           4/11
$$

......................KEY.........................
  SKY/WX - SKY CONDITION/PRESENT WEATHER
  TMP    - TEMPERATURE IN FAHRENHEIT
  DWPT   - DEWPOINT IN FAHRENHEIT
  RH     - RELATIVE HUMIDITY IN PERCENT
  WIND   - DIRECTION AND SPEED IN MPH
  PRES   - MEAN SEA LEVEL PRESSURE IN INCHES OF HG
  WCI    - WIND CHILL INDEX
  VSB    - VISIBILITY IN MILES
  HX     - HEAT INDEX
  TC     - TEMPERATURE IN CELSIUS
  VRB    - VARIABLE WIND DIRECTION
  N/A    - NOT AVAILABLE
  
      

Other recent Regional Weather Roundups

Fri Apr 16, 9:04am

Fri Apr 16, 8:04am

Fri Apr 16, 7:04am

Fri Apr 16, 6:04am

Fri Apr 16, 5:04am

Fri Apr 16, 4:04am

Fri Apr 16, 3:04am

Fri Apr 16, 2:04am

Fri Apr 16, 1:04am

Fri Apr 16, 12:04am

Thu Apr 15, 11:05pm

Thu Apr 15, 10:04pm

Thu Apr 15, 9:04pm

Thu Apr 15, 8:04pm

Thu Apr 15, 7:05pm

Thu Apr 15, 6:04pm

Thu Apr 15, 5:05pm

Thu Apr 15, 4:04pm

Thu Apr 15, 3:05pm

Thu Apr 15, 2:04pm

Thu Apr 15, 1:05pm

Thu Apr 15, 12:04pm

Thu Apr 15, 10:05am

Thu Apr 15, 9:04am

Thu Apr 15, 8:04am

Thu Apr 15, 7:04am

Thu Apr 15, 6:04am

Thu Apr 15, 5:04am

Thu Apr 15, 4:04am

Thu Apr 15, 3:04am

Thu Apr 15, 2:04am

Thu Apr 15, 1:04am

Thu Apr 15, 12:04am

Wed Apr 14, 11:04pm

Wed Apr 14, 10:04pm

Wed Apr 14, 9:04pm

Wed Apr 14, 8:04pm

Wed Apr 14, 7:04pm

Wed Apr 14, 6:04pm

Wed Apr 14, 5:05pm

Wed Apr 14, 4:04pm

Wed Apr 14, 3:05pm

Wed Apr 14, 2:04pm

Wed Apr 14, 1:05pm

Wed Apr 14, 12:04pm

Wed Apr 14, 11:04am

Wed Apr 14, 10:04am

Wed Apr 14, 9:04am

Wed Apr 14, 8:04am

Wed Apr 14, 7:04am

Wed Apr 14, 6:04am

Wed Apr 14, 5:04am

Wed Apr 14, 4:04am

Wed Apr 14, 3:04am

Wed Apr 14, 2:04am

Wed Apr 14, 1:04am

Wed Apr 14, 12:04am

Tue Apr 13, 11:04pm

Tue Apr 13, 10:05pm

Tue Apr 13, 9:05pm

Tue Apr 13, 8:05pm

Tue Apr 13, 7:04pm

Tue Apr 13, 6:04pm

Tue Apr 13, 5:05pm

Tue Apr 13, 4:04pm

Tue Apr 13, 3:04pm

Tue Apr 13, 2:05pm

Tue Apr 13, 1:04pm

Tue Apr 13, 12:05pm

Tue Apr 13, 11:05am

Tue Apr 13, 10:04am

Tue Apr 13, 9:04am

Tue Apr 13, 8:04am

Tue Apr 13, 7:04am

Tue Apr 13, 6:04am

Tue Apr 13, 5:04am

Tue Apr 13, 4:04am

Tue Apr 13, 3:04am

Tue Apr 13, 2:04am

Tue Apr 13, 1:04am

Tue Apr 13, 12:05am

Mon Apr 12, 11:04pm

Mon Apr 12, 10:04pm

Mon Apr 12, 9:04pm

Mon Apr 12, 8:04pm

Mon Apr 12, 7:05pm

Mon Apr 12, 6:04pm

Mon Apr 12, 5:04pm

Mon Apr 12, 4:04pm

Mon Apr 12, 3:05pm

Mon Apr 12, 2:04pm

Mon Apr 12, 1:05pm

Mon Apr 12, 12:04pm

Mon Apr 12, 11:04am

Mon Apr 12, 10:04am

Mon Apr 12, 9:04am

Mon Apr 12, 8:04am

Mon Apr 12, 7:04am

Mon Apr 12, 6:04am

Mon Apr 12, 5:04am

Mon Apr 12, 4:04am

Mon Apr 12, 3:04am

Mon Apr 12, 2:04am

Mon Apr 12, 1:05am

Mon Apr 12, 12:04am

Sun Apr 11, 11:04pm

Sun Apr 11, 10:04pm

Sun Apr 11, 9:04pm

Sun Apr 11, 8:04pm

Sun Apr 11, 7:04pm

Sun Apr 11, 6:05pm

Sun Apr 11, 5:05pm

Sun Apr 11, 4:04pm

Sun Apr 11, 3:05pm

Sun Apr 11, 2:05pm

Sun Apr 11, 1:05pm

Sun Apr 11, 12:04pm

Sun Apr 11, 11:05am

Sun Apr 11, 10:05am

Sun Apr 11, 9:04am

Sun Apr 11, 8:04am

Sun Apr 11, 7:04am

Sun Apr 11, 6:04am

Sun Apr 11, 5:04am

Sun Apr 11, 4:04am

Sun Apr 11, 3:04am

Sun Apr 11, 2:04am

Sun Apr 11, 1:05am

Sun Apr 11, 12:04am

Sat Apr 10, 11:05pm

Sat Apr 10, 10:04pm

Sat Apr 10, 9:04pm

Sat Apr 10, 8:04pm

Sat Apr 10, 7:05pm

Sat Apr 10, 6:04pm

Sat Apr 10, 5:04pm

Sat Apr 10, 4:04pm

Sat Apr 10, 3:04pm

Sat Apr 10, 2:05pm

Sat Apr 10, 1:04pm

Sat Apr 10, 12:04pm

Sat Apr 10, 11:04am

Sat Apr 10, 10:04am

Sat Apr 10, 9:04am

Sat Apr 10, 8:04am

Sat Apr 10, 7:04am

Sat Apr 10, 6:04am

Sat Apr 10, 5:04am

Sat Apr 10, 4:04am

Sat Apr 10, 3:04am

Sat Apr 10, 2:04am

Sat Apr 10, 1:05am

Sat Apr 10, 12:04am

Fri Apr 9, 11:04pm

Fri Apr 9, 10:05pm

Fri Apr 9, 9:04pm

Fri Apr 9, 8:05pm

Fri Apr 9, 7:05pm

Fri Apr 9, 6:04pm

Fri Apr 9, 5:04pm

Fri Apr 9, 4:05pm

Fri Apr 9, 3:05pm

Fri Apr 9, 2:04pm

Fri Apr 9, 1:04pm

Fri Apr 9, 12:04pm

Fri Apr 9, 11:05am

Fri Apr 9, 10:04am

Meta data:

ID: ed5f124e-340a-4418-ab19-570580437f86
Link: https://api.weather.gov/products/ed5f124e-340a-4418-ab19-570580437f86